Wind_Speed
63 61 59 57 55 52 51 52 53 52 50 48 48 47 44 45 44 42 44 47 47 38 25 27 34 34 31 29 29 31 33 36 36 36 36 35 33 30 29 29 27 26 25 23 22 22 22 20 19 17 17 18 21 24 26 26 26 27 29 31 30 30 28
63 63 61 58 56 54 52 52 52 50 48 46 46 46 44 45 47 44 44 46 45 39 29 27 32 33 32 31 30 29 31 34 36 35 34 34 34 33 31 30 29 28 27 25 23 22 22 20 19 18 17 19 22 25 27 27 26 27 29 31 31 31 29
65 65 62 59 58 56 53 51 51 51 49 47 48 50 48 49 50 48 45 45 45 39 30 27 29 31 30 29 30 29 30 31 32 33 33 34 34 34 32 31 31 30 30 28 26 24 23 22 21 20 19 21 23 26 28 27 27 29 31 33 33 32 30
66 66 64 61 60 58 54 52 54 54 50 48 48 49 49 49 50 48 45 44 44 38 30 25 25 28 29 29 29 28 27 26 26 28 31 34 35 34 33 32 31 31 30 29 27 25 24 23 22 21 21 22 23 26 28 28 27 29 32 33 34 32 31
67 65 64 62 59 59 58 57 58 56 53 52 49 48 49 47 48 47 44 44 42 35 28 25 24 25 27 29 28 26 25 24 23 23 25 31 35 35 33 32 32 31 31 29 28 27 26 26 25 24 23 23 24 26 27 28 27 27 29 31 32 32 31
68 65 64 63 60 60 60 59 59 56 55 55 52 52 51 48 48 47 45 46 42 32 27 27 25 24 25 27 27 26 26 26 24 22 21 26 33 36 35 33 32 32 32 30 30 30 30 29 27 26 24 23 24 26 27 28 28 27 27 29 30 31 31
67 64 62 62 61 62 62 61 59 55 55 56 55 54 51 49 50 47 45 47 40 29 26 27 25 23 24 27 28 27 28 29 28 25 22 23 27 31 32 32 32 32 32 32 32 33 32 29 27 26 25 24 24 26 27 28 28 27 27 28 29 31 32
65 61 59 59 60 62 62 61 60 57 56 55 54 54 50 49 49 45 46 44 33 26 26 26 26 24 23 26 28 28 28 29 30 28 26 26 26 26 25 26 28 30 31 32 34 35 33 30 28 27 25 24 24 25 27 27 28 28 28 29 30 30 31
60 57 56 57 59 62 62 62 61 60 58 55 54 54 51 51 49 45 46 38 25 26 29 28 29 29 27 27 29 30 29 29 30 29 28 28 28 26 23 22 25 29 33 35 35 35 33 30 28 27 26 25 24 25 25 27 28 29 29 30 30 30 30
60 56 56 58 61 63 64 63 62 60 59 57 56 56 55 54 50 46 47 34 24 29 34 33 34 33 30 30 30 32 33 32 34 34 32 31 31 29 27 24 25 29 33 35 34 32 32 31 28 27 26 25 24 25 26 28 30 30 30 30 30 31 30
62 57 57 61 64 65 65 64 62 60 59 59 58 58 57 55 51 49 47 34 25 29 34 33 33 30 29 31 30 32 34 35 37 38 37 37 35 32 30 29 29 31 32 35 34 31 31 31 29 28 27 26 25 25 26 28 30 30 31 30 30 31 30
64 57 56 61 64 65 65 64 62 60 60 60 60 59 57 54 52 51 45 34 29 30 30 29 29 29 29 30 29 31 33 33 36 38 39 41 40 37 34 33 34 35 34 35 35 32 31 31 30 29 29 27 27 26 27 28 30 30 30 30 30 30 30
67 58 56 59 62 63 64 64 63 62 62 62 61 60 57 55 54 50 41 35 32 30 29 29 30 30 29 29 30 31 31 32 33 34 35 37 39 40 39 37 36 37 37 36 35 32 31 32 32 31 30 30 29 28 28 29 30 30 30 30 29 29 29
68 60 56 59 61 60 61 64 65 63 63 63 61 59 57 55 53 48 40 35 33 31 31 32 31 31 31 31 32 30 29 28 29 29 28 31 36 41 41 39 38 38 38 36 34 33 32 33 33 33 31 31 30 28 27 28 29 30 30 30 30 29 29
69 63 58 59 60 58 58 62 66 65 63 62 60 58 57 55 52 45 39 38 37 35 35 35 34 34 34 34 32 29 25 24 23 23 24 27 33 39 41 40 39 39 38 36 35 34 33 32 33 33 32 30 29 28 28 28 28 30 30 30 30 29 29
69 65 59 59 59 56 56 60 64 65 63 60 59 58 57 56 51 43 41 41 40 39 39 39 38 37 35 34 32 27 23 21 20 21 23 26 31 37 40 40 39 38 36 35 37 35 31 32 34 34 32 31 29 29 29 28 29 30 30 30 30 30 30
67 66 62 59 56 53 55 59 61 64 64 61 59 59 57 56 52 46 44 44 42 41 42 42 39 37 36 34 32 28 24 21 20 22 24 26 30 34 37 38 38 36 34 35 38 34 31 32 33 32 31 29 28 29 30 30 30 29 29 28 29 30 31
64 66 64 59 54 51 55 59 60 62 65 62 60 60 58 56 52 47 46 45 43 43 43 41 39 37 36 35 33 31 28 24 22 23 25 27 30 32 34 36 37 34 32 33 35 33 31 32 32 31 30 29 29 31 32 31 31 30 29 29 29 31 31
60 65 65 60 56 53 54 58 60 61 64 63 62 61 58 55 52 49 49 48 45 45 44 42 39 37 37 37 37 35 33 28 25 25 27 29 29 30 32 35 36 35 34 34 33 32 33 34 33 32 31 31 31 32 32 32 32 31 31 31 31 32 32
56 62 64 62 59 54 52 56 60 62 63 63 63 61 58 54 51 50 51 49 46 46 46 43 40 38 39 40 40 39 36 32 28 26 27 28 29 29 30 34 37 37 36 34 33 34 35 34 34 32 31 31 32 33 33 33 32 32 32 32 32 32 32
55 59 62 62 60 54 51 55 60 62 63 63 63 61 57 54 51 50 52 51 48 47 47 45 42 40 41 42 42 41 38 34 31 28 26 26 28 29 30 34 38 39 37 35 34 35 36 35 35 34 32 32 34 35 34 33 31 31 31 31 32 31 31
53 56 59 62 61 55 52 53 57 63 64 62 62 61 58 54 52 50 51 51 49 48 48 47 44 42 43 43 43 43 41 37 34 31 26 24 26 28 31 35 38 38 37 37 36 37 38 38 38 36 34 34 35 36 34 32 31 30 29 29 30 30 30
51 55 58 61 61 58 54 50 51 60 64 62 60 60 58 54 51 50 51 51 50 49 49 49 47 44 44 44 44 44 42 39 37 35 30 25 25 28 32 36 38 38 37 38 39 39 40 40 40 39 38 35 35 35 34 33 31 29 28 28 28 28 29
50 54 57 60 62 60 56 48 45 53 62 62 59 58 57 55 52 52 52 52 51 50 51 52 50 46 45 45 45 45 44 41 39 36 32 27 24 25 32 37 38 39 38 37 38 39 39 39 40 40 40 36 34 34 34 32 31 29 28 28 27 27 28
50 53 56 61 64 61 57 50 43 46 57 62 59 57 57 57 54 53 54 53 53 52 52 53 51 48 48 48 47 47 44 41 39 36 32 29 24 23 31 39 40 39 38 36 36 37 37 37 39 39 39 35 32 32 33 31 29 28 29 29 28 27 27
50 53 56 62 66 63 56 49 44 45 54 60 60 59 58 57 55 55 55 55 55 54 53 53 53 51 52 52 50 47 45 41 39 35 32 31 27 25 32 40 41 40 39 37 36 37 36 36 37 37 35 33 31 31 31 30 29 29 29 29 29 28 27
50 53 58 63 67 64 57 49 44 48 55 59 60 60 59 57 56 55 56 56 56 56 55 54 54 55 55 54 51 48 46 43 40 36 33 32 29 27 33 42 43 42 41 39 37 37 36 35 36 35 33 32 31 32 32 32 32 32 31 31 32 31 30
52 54 60 65 67 66 61 52 46 50 56 57 59 62 61 59 58 57 57 57 57 58 57 55 56 58 57 55 53 50 48 46 42 38 35 34 30 28 35 44 46 44 44 42 39 38 37 36 35 34 33 32 33 35 35 35 35 35 34 35 35 34 33
55 56 61 66 67 67 66 59 49 48 54 57 60 63 63 61 60 60 58 58 59 58 57 56 56 59 59 57 55 53 50 48 46 42 38 36 31 30 37 45 47 46 45 44 42 40 39 37 35 34 33 32 33 36 37 37 37 37 37 38 38 37 36
56 58 62 65 67 67 67 63 51 44 51 58 61 64 65 63 62 62 60 60 61 59 57 56 56 57 59 59 58 57 54 51 48 45 41 37 34 33 39 46 48 48 47 45 43 42 40 37 35 34 33 33 33 35 37 39 41 41 41 40 41 40 39
57 61 63 64 65 66 67 65 53 42 50 62 65 65 66 64 64 65 62 61 63 61 58 58 59 58 58 59 58 58 56 54 51 47 43 40 38 37 39 44 47 48 47 45 43 41 38 34 32 32 32 33 33 35 37 39 41 43 45 45 44 44 43
57 62 63 61 63 66 67 67 58 45 49 63 68 67 68 67 65 66 65 62 63 64 61 59 59 59 59 57 56 56 57 55 52 49 46 43 41 39 40 42 44 45 45 43 40 38 36 34 33 33 33 34 36 38 38 38 38 40 45 48 49 49 49
55 60 61 59 61 65 67 69 65 51 45 59 69 69 69 69 67 67 68 65 63 64 63 60 59 60 60 59 55 54 56 57 54 51 49 47 44 42 42 43 44 44 43 42 39 38 37 36 36 36 37 38 39 40 40 40 39 39 42 46 49 51 51
49 55 59 59 60 64 67 71 72 59 45 50 65 70 70 70 69 67 68 66 63 62 62 61 60 60 59 59 56 54 57 61 59 54 52 51 47 45 44 44 46 46 45 43 41 40 38 36 35 36 37 39 39 40 40 41 41 41 42 43 46 48 49
43 49 56 59 59 62 66 70 74 68 52 44 55 66 71 70 69 68 67 66 63 62 62 62 62 61 59 57 55 53 56 62 62 56 54 53 51 48 46 45 46 47 47 45 43 41 38 35 34 34 35 35 36 38 39 40 42 42 43 43 44 45 46
39 44 52 57 59 61 65 68 71 73 66 51 46 56 67 71 71 68 66 65 64 62 61 62 63 63 60 58 55 53 54 57 58 56 54 53 52 50 48 47 46 47 46 45 43 41 38 36 34 33 33 32 33 34 36 38 39 40 42 43 44 45 46
34 41 48 54 58 60 64 66 67 71 73 64 50 44 52 64 71 71 66 63 63 64 62 62 63 64 62 59 57 56 54 54 54 54 53 53 53 52 50 48 47 46 46 45 43 41 38 36 34 33 32 32 32 32 33 34 36 38 40 42 43 45 46
Wind_Direction
217 217 216 214 214 213 211 212 214 214 216 222 226 227 225 228 229 223 224 231 235 236 218 195 203 213 211 204 201 205 206 204 201 201 203 205 206 207 210 213 211 206 206 207 207 203 197 194 190 188 193 199 199 198 195 194 196 195 192 191 189 189 190
215 216 216 213 212 213 213 213 214 215 216 219 223 226 226 227 229 225 224 230 234 233 223 203 202 210 212 206 204 208 211 211 209 207 203 204 208 208 207 210 210 205 204 206 209 206 199 193 188 186 192 197 197 196 195 194 194 194 193 193 192 192 191
213 214 214 212 210 211 212 213 215 217 217 217 219 222 221 223 227 225 223 227 231 229 221 210 205 207 210 209 207 209 213 216 220 219 211 203 204 208 207 207 206 204 202 204 207 206 199 193 189 187 192 196 196 195 194 194 193 193 194 194 195 195 193
211 211 212 212 210 209 209 211 214 217 216 217 221 224 223 224 227 227 224 226 229 227 219 213 208 205 208 209 207 207 211 215 221 224 216 205 202 206 209 208 204 202 201 202 206 206 199 194 192 191 193 195 197 196 195 195 194 195 196 196 197 197 195
210 209 210 210 210 210 209 210 213 214 213 213 218 223 225 226 229 229 227 227 227 225 220 217 210 203 206 212 209 205 206 209 214 215 209 204 202 204 208 209 205 201 201 202 205 206 200 196 194 193 193 194 196 198 197 197 197 197 199 200 201 200 198
210 208 209 208 208 209 209 211 214 213 212 213 214 218 220 222 226 227 228 228 224 219 217 220 217 206 204 212 213 206 200 202 207 206 201 201 203 205 208 209 207 203 201 201 203 203 201 199 196 194 193 193 196 198 200 201 200 198 200 202 204 204 203
211 207 207 207 206 208 209 211 213 213 213 214 214 217 219 220 223 224 227 228 220 212 214 220 222 212 201 206 214 210 200 199 202 202 200 199 201 207 212 213 213 209 203 201 202 202 201 201 198 194 193 193 196 200 202 203 202 201 202 203 205 206 206
211 207 205 206 205 206 209 210 211 212 213 214 215 218 219 222 223 222 226 226 212 201 211 219 225 223 209 204 210 211 205 199 200 200 200 200 198 202 212 218 218 215 209 205 202 202 201 200 199 195 192 193 198 202 204 204 204 204 205 205 206 207 206
210 207 204 205 204 204 207 209 211 211 212 212 214 216 218 221 221 220 224 220 195 189 206 215 223 225 220 213 209 210 207 200 200 202 202 205 202 198 205 216 220 217 214 210 204 202 203 201 200 197 192 194 199 204 206 206 206 206 206 206 207 207 207
207 206 203 204 204 203 205 208 210 211 211 211 213 215 217 218 217 218 220 209 180 187 200 207 215 218 219 219 212 208 205 198 198 202 202 205 206 201 199 208 218 220 216 210 205 204 205 204 202 198 194 195 199 203 208 209 208 207 206 206 206 207 208
205 205 203 203 204 203 204 207 209 209 210 211 212 214 216 216 215 218 217 200 181 192 198 203 213 214 217 220 215 209 205 200 200 203 203 203 203 202 200 200 210 218 216 211 209 208 208 206 202 197 195 196 198 202 208 210 210 208 207 206 206 206 207
204 203 202 204 205 204 204 206 208 208 210 212 213 214 216 215 214 217 213 196 188 197 196 197 207 209 210 213 211 207 207 206 206 207 207 205 200 199 200 198 203 210 213 214 216 215 210 205 200 197 195 196 198 202 207 209 210 209 207 206 206 206 206
204 202 200 202 205 204 203 205 207 208 209 211 213 214 215 216 215 214 208 194 189 191 190 191 199 202 202 203 205 206 206 209 212 213 213 211 204 200 198 197 200 204 207 212 216 215 212 205 200 197 196 197 200 203 206 208 208 208 207 205 205 206 206
205 201 199 201 204 204 203 205 207 208 209 211 213 214 215 217 216 214 205 192 182 182 187 190 193 196 197 199 204 207 207 211 216 218 216 215 211 205 198 195 197 200 204 210 214 214 212 207 200 197 197 199 202 204 206 206 205 205 205 204 204 204 205
206 202 199 199 202 203 204 206 207 207 208 210 212 214 215 217 217 213 204 191 180 182 189 190 190 194 197 201 206 206 205 206 212 217 214 211 212 208 199 193 195 199 204 210 215 215 213 208 201 197 199 200 202 205 205 204 203 202 202 202 202 203 204
208 203 199 198 200 203 206 207 207 208 208 209 211 213 214 215 215 211 204 195 185 184 188 188 190 195 198 203 206 201 197 199 205 210 207 204 207 208 200 193 194 199 203 209 215 215 213 209 203 198 199 200 203 205 204 203 202 200 200 200 200 202 204
211 204 200 198 198 203 207 207 207 208 208 208 210 212 212 213 213 210 206 200 189 185 186 185 189 195 198 202 203 196 192 197 204 209 207 204 206 208 204 198 197 199 202 208 215 214 212 210 205 200 200 200 202 204 203 204 203 199 198 198 199 201 203
213 206 201 197 197 202 207 207 207 208 208 207 209 211 212 212 211 210 207 202 191 186 186 185 187 193 195 197 197 193 191 196 203 209 210 208 207 207 206 203 200 199 202 208 211 209 207 206 202 199 199 198 199 202 202 203 202 199 197 197 198 201 202
214 207 201 198 198 201 205 206 207 208 208 207 208 210 211 211 210 208 207 204 195 189 188 187 187 190 190 191 191 190 190 194 201 208 209 206 204 202 203 203 201 200 203 206 204 201 200 199 198 198 198 197 199 200 201 202 202 200 198 197 198 200 201
213 207 202 200 199 199 203 207 208 208 208 207 208 210 211 211 209 207 207 205 198 192 190 188 186 186 185 185 186 187 189 193 198 203 203 201 197 194 196 199 198 198 202 203 201 200 199 197 198 199 199 198 199 199 201 202 202 200 200 199 199 200 200
212 207 202 200 198 198 201 206 208 209 208 207 207 209 210 210 209 207 207 205 200 194 191 188 185 182 180 180 183 186 189 192 196 199 200 199 195 190 189 191 191 193 198 201 202 203 202 201 202 203 201 199 199 200 201 203 203 202 201 201 201 201 201
211 207 203 199 197 197 199 204 209 211 209 206 207 208 209 209 208 207 206 205 201 195 191 188 186 181 179 180 183 188 191 193 195 197 198 200 199 195 191 190 190 192 196 199 203 204 205 205 205 205 204 203 202 201 202 204 205 204 202 203 203 202 201
208 205 203 197 195 196 197 201 210 213 210 207 207 208 209 208 207 206 205 204 202 196 191 190 187 183 183 184 187 191 195 195 196 197 197 200 202 199 197 194 191 192 196 199 203 207 208 208 207 205 206 206 204 203 203 205 207 205 201 201 201 200 200
206 204 201 196 194 195 196 200 211 215 212 209 207 207 208 207 205 205 204 202 201 197 192 191 190 189 189 189 191 195 198 198 198 198 198 200 202 201 199 194 187 190 197 201 205 209 211 210 207 206 207 207 205 203 204 205 206 203 198 197 197 197 197
205 202 199 194 194 195 196 202 212 214 211 210 208 208 208 206 204 205 204 202 201 198 193 192 194 194 194 194 195 197 200 200 200 200 200 201 204 203 199 192 186 190 197 200 202 207 209 207 206 207 208 209 208 205 204 205 204 200 196 195 194 195 196
203 201 197 193 194 196 198 205 213 214 211 209 207 207 207 206 205 205 204 202 201 199 195 194 196 197 198 198 198 198 200 202 202 203 204 204 205 206 201 193 188 192 199 201 201 205 207 206 206 208 209 211 210 207 205 204 202 200 198 195 194 196 199
199 199 196 195 197 197 197 203 209 210 210 209 206 206 207 206 206 207 205 203 202 200 198 196 197 199 200 200 200 199 200 203 204 205 206 206 206 207 203 196 191 193 201 205 205 207 209 209 209 209 210 210 210 208 206 203 202 202 200 197 196 197 199
197 197 197 197 199 197 197 202 205 203 206 207 203 204 207 206 206 208 207 205 203 202 200 198 199 201 201 201 202 201 201 204 206 206 207 208 209 208 202 196 193 196 203 207 209 210 212 212 210 209 210 210 209 208 207 205 204 203 202 199 198 198 199
196 197 198 199 200 198 199 205 205 199 201 204 201 202 206 206 205 207 208 206 205 205 203 200 200 203 204 204 205 205 205 206 207 207 208 209 208 205 200 196 194 198 204 208 210 213 215 215 213 212 210 210 210 210 209 208 206 204 204 203 202 201 201
196 197 200 202 203 201 201 206 208 200 197 201 201 201 204 205 205 206 208 207 207 207 206 203 202 203 205 207 208 207 207 208 208 207 207 208 205 201 199 197 196 200 205 208 210 212 215 216 216 216 215 213 213 214 214 213 209 205 204 205 204 203 203
198 199 203 206 206 203 202 206 212 204 193 195 199 200 201 204 205 205 207 208 208 208 208 207 205 205 206 208 210 209 209 209 209 206 205 205 202 200 200 199 199 203 207 209 211 213 215 215 215 216 215 213 214 215 217 219 217 210 206 206 206 206 206
202 201 205 208 208 205 203 205 211 207 190 188 195 198 200 203 204 204 206 209 209 210 211 210 208 207 207 208 209 209 209 208 207 204 202 201 201 201 201 200 201 204 207 208 210 213 214 214 213 212 210 209 210 212 215 219 222 218 212 210 209 210 213
204 205 207 210 209 208 206 206 210 211 196 187 191 196 199 202 205 205 206 207 209 210 211 212 211 210 210 209 209 211 211 208 204 201 199 200 201 201 203 202 202 205 207 208 211 214 214 213 213 212 211 210 210 212 214 217 220 221 219 217 215 217 220
203 207 210 211 211 211 210 209 211 214 206 192 191 194 199 203 206 207 207 206 207 208 210 211 212 211 211 210 211 214 213 208 204 202 199 199 200 201 202 204 205 207 209 210 212 213 212 212 212 213 213 214 214 214 215 217 220 222 223 223 222 222 224
200 207 211 213 213 213 213 213 214 216 214 202 192 193 199 203 206 209 208 206 206 208 209 212 213 213 213 212 212 214 210 203 202 202 199 199 201 201 202 204 206 208 210 211 211 212 211 212 213 214 215 216 217 217 217 219 221 223 224 226 226 226 226
199 206 211 214 216 216 215 216 218 219 219 214 200 194 198 203 207 211 211 209 209 210 211 212 213 213 213 213 214 216 211 203 199 200 200 199 201 202 202 204 206 208 209 210 211 211 212 213 215 216 217 219 219 219 219 220 221 223 224 226 227 228 229
200 207 212 215 218 219 218 219 220 221 221 221 216 204 199 202 207 211 213 212 212 213 213 214 215 215 214 212 213 216 216 209 203 203 204 203 203 204 204 205 206 208 210 211 211 212 214 216 219 221 223 224 222 221 220 220 222 223 224 225 227 228 229
Height
5753 5758 5763 5767 5771 5776 5780 5780 5782 5787 5792 5794 5795 5799 5803 5805 5808 5812 5812 5809 5811 5820 5830 5835 5836 5837 5841 5846 5850 5852 5854 5855 5856 5857 5859 5861 5863 5865 5868 5871 5875 5878 5880 5881 5883 5884 5884 5885 5887 5888 5890 5892 5894 5896 5898 5900 5902 5904 5907 5909 5911 5912 5914
5748 5751 5755 5760 5766 5771 5774 5777 5783 5786 5787 5790 5793 5796 5799 5801 5801 5805 5808 5807 5810 5818 5825 5831 5834 5835 5838 5843 5847 5850 5852 5854 5855 5857 5859 5861 5862 5863 5865 5868 5872 5875 5877 5879 5881 5883 5883 5885 5886 5887 5888 5890 5891 5893 5896 5898 5900 5903 5905 5907 5909 5910 5912
5740 5744 5748 5753 5758 5764 5770 5778 5781 5780 5782 5787 5789 5788 5791 5793 5794 5798 5803 5804 5807 5814 5821 5828 5832 5835 5838 5842 5845 5848 5850 5852 5854 5857 5858 5859 5860 5861 5862 5865 5868 5871 5874 5876 5879 5881 5882 5883 5884 5884 5886 5887 5889 5891 5894 5896 5898 5900 5902 5905 5907 5909 5911
5733 5737 5741 5747 5755 5761 5767 5771 5771 5773 5779 5785 5786 5786 5789 5791 5791 5795 5800 5801 5804 5811 5819 5825 5829 5833 5836 5839 5842 5845 5848 5850 5853 5855 5857 5857 5858 5859 5860 5862 5865 5868 5871 5874 5876 5878 5880 5881 5882 5883 5884 5886 5888 5890 5892 5894 5897 5899 5900 5903 5905 5907 5909
5726 5730 5736 5745 5754 5757 5760 5761 5761 5767 5774 5778 5780 5781 5784 5788 5790 5793 5797 5798 5802 5811 5818 5822 5825 5830 5833 5835 5839 5843 5845 5848 5851 5853 5854 5855 5856 5857 5859 5860 5862 5865 5868 5871 5874 5876 5877 5878 5879 5880 5882 5884 5887 5889 5891 5893 5895 5898 5900 5902 5904 5906 5908
5720 5727 5734 5742 5747 5749 5754 5755 5757 5764 5769 5771 5773 5774 5777 5783 5785 5789 5793 5793 5799 5810 5815 5817 5821 5826 5829 5832 5835 5839 5842 5845 5848 5850 5852 5853 5855 5856 5857 5858 5860 5863 5865 5868 5871 5873 5874 5875 5876 5878 5880 5883 5885 5888 5890 5892 5894 5896 5899 5901 5903 5905 5907
5716 5725 5731 5736 5739 5743 5747 5750 5754 5762 5765 5767 5770 5772 5776 5780 5780 5785 5789 5789 5797 5809 5813 5814 5817 5821 5826 5829 5831 5835 5839 5842 5844 5847 5850 5852 5853 5854 5855 5857 5859 5861 5863 5866 5868 5870 5871 5873 5875 5877 5879 5881 5884 5886 5888 5890 5892 5895 5897 5899 5901 5903 5905
5714 5722 5727 5730 5733 5737 5741 5745 5750 5755 5758 5764 5769 5772 5775 5776 5777 5783 5785 5787 5798 5809 5811 5812 5815 5818 5822 5825 5828 5831 5835 5838 5841 5843 5846 5849 5851 5853 5854 5855 5857 5860 5862 5863 5865 5867 5869 5870 5872 5875 5877 5879 5882 5884 5886 5889 5891 5893 5895 5897 5899 5901 5903
5708 5715 5720 5722 5726 5730 5735 5740 5744 5748 5754 5761 5765 5767 5769 5770 5774 5780 5783 5789 5800 5805 5806 5808 5810 5813 5817 5820 5824 5827 5831 5834 5837 5840 5843 5845 5848 5850 5851 5853 5855 5857 5858 5860 5863 5865 5867 5868 5870 5873 5875 5877 5880 5882 5885 5887 5889 5890 5892 5895 5897 5899 5901
5699 5706 5711 5714 5718 5723 5728 5734 5738 5744 5751 5755 5758 5760 5762 5765 5772 5776 5779 5789 5798 5799 5800 5803 5805 5808 5812 5815 5819 5823 5826 5830 5832 5835 5837 5840 5843 5846 5848 5850 5852 5854 5856 5859 5862 5864 5865 5867 5869 5871 5873 5875 5878 5880 5882 5884 5886 5888 5890 5892 5895 5897 5899
5695 5701 5707 5710 5713 5718 5724 5729 5734 5740 5746 5750 5753 5755 5758 5764 5771 5772 5777 5789 5795 5794 5797 5800 5802 5806 5809 5811 5815 5819 5823 5826 5828 5829 5832 5834 5837 5841 5844 5847 5850 5852 5855 5858 5860 5862 5863 5865 5867 5869 5871 5873 5875 5878 5880 5881 5883 5886 5888 5890 5893 5895 5897
5691 5697 5702 5706 5710 5715 5720 5726 5731 5736 5742 5745 5749 5753 5757 5764 5767 5768 5777 5788 5791 5792 5796 5798 5799 5802 5805 5808 5811 5815 5819 5822 5823 5825 5827 5828 5831 5835 5839 5842 5846 5849 5853 5855 5858 5860 5861 5863 5865 5866 5868 5870 5873 5875 5877 5878 5881 5883 5886 5888 5891 5893 5895
5687 5692 5698 5703 5706 5712 5717 5721 5726 5732 5737 5741 5746 5751 5756 5761 5763 5768 5777 5785 5788 5791 5793 5794 5796 5799 5802 5805 5808 5811 5814 5817 5819 5821 5823 5826 5828 5830 5833 5837 5842 5846 5849 5852 5854 5857 5859 5860 5862 5864 5866 5868 5870 5872 5874 5876 5879 5881 5884 5886 5889 5891 5893
5682 5689 5694 5698 5703 5709 5714 5718 5723 5728 5733 5738 5743 5749 5754 5758 5762 5768 5776 5781 5785 5787 5788 5790 5793 5796 5799 5802 5804 5807 5810 5813 5815 5818 5821 5824 5826 5827 5829 5834 5838 5842 5846 5849 5852 5854 5856 5858 5860 5862 5864 5866 5868 5871 5873 5875 5877 5879 5882 5884 5886 5889 5891
5678 5685 5690 5694 5700 5707 5711 5714 5719 5724 5730 5736 5740 5745 5751 5755 5760 5768 5775 5778 5780 5782 5784 5786 5789 5792 5796 5799 5801 5805 5808 5811 5813 5815 5818 5820 5822 5824 5827 5831 5835 5839 5843 5846 5849 5851 5854 5856 5858 5860 5862 5864 5867 5869 5871 5873 5875 5877 5879 5882 5884 5886 5888
5672 5680 5686 5691 5696 5703 5707 5710 5715 5720 5726 5732 5736 5742 5747 5752 5758 5767 5772 5774 5775 5777 5779 5782 5786 5790 5793 5796 5799 5803 5806 5808 5811 5813 5815 5817 5820 5822 5825 5828 5832 5836 5840 5843 5846 5849 5852 5854 5856 5858 5860 5862 5864 5867 5869 5871 5873 5875 5877 5879 5881 5883 5884
5668 5677 5683 5688 5694 5698 5701 5705 5711 5716 5722 5728 5733 5738 5743 5748 5755 5762 5767 5769 5772 5774 5776 5780 5784 5787 5791 5794 5797 5801 5804 5807 5809 5811 5813 5815 5817 5820 5822 5825 5829 5833 5838 5841 5844 5847 5851 5853 5854 5857 5858 5860 5863 5865 5867 5869 5871 5873 5875 5877 5879 5880 5882
5664 5672 5679 5686 5690 5692 5695 5702 5708 5713 5718 5725 5730 5734 5739 5744 5751 5758 5763 5766 5770 5772 5774 5777 5781 5785 5788 5791 5795 5799 5803 5806 5808 5809 5810 5812 5814 5816 5819 5823 5827 5832 5836 5839 5842 5845 5849 5851 5853 5855 5856 5858 5860 5862 5864 5866 5868 5870 5872 5874 5876 5878 5880
5661 5668 5676 5682 5683 5686 5693 5699 5704 5709 5715 5721 5726 5731 5736 5742 5748 5754 5758 5763 5767 5770 5772 5775 5779 5783 5786 5789 5793 5797 5801 5803 5806 5807 5808 5810 5811 5813 5816 5820 5825 5830 5834 5837 5840 5843 5846 5848 5850 5851 5853 5855 5857 5859 5861 5863 5865 5868 5870 5872 5873 5875 5877
5657 5664 5671 5676 5679 5685 5692 5697 5702 5706 5711 5717 5723 5728 5733 5739 5744 5749 5754 5758 5763 5767 5769 5773 5777 5781 5784 5787 5791 5794 5797 5800 5804 5806 5807 5808 5810 5812 5815 5819 5824 5828 5832 5835 5838 5841 5844 5846 5847 5849 5851 5853 5855 5857 5859 5861 5863 5865 5867 5869 5871 5873 5876
5653 5660 5667 5673 5679 5685 5690 5694 5700 5703 5707 5713 5720 5725 5730 5735 5741 5745 5749 5754 5760 5764 5767 5771 5775 5778 5782 5785 5788 5791 5794 5797 5801 5804 5806 5807 5809 5811 5813 5817 5821 5825 5829 5833 5836 5839 5841 5844 5845 5847 5849 5850 5852 5854 5856 5859 5862 5864 5866 5868 5870 5873 5875
5650 5658 5664 5670 5677 5683 5687 5692 5697 5700 5705 5711 5716 5721 5726 5731 5736 5740 5745 5751 5756 5761 5765 5769 5772 5776 5779 5782 5785 5788 5791 5794 5798 5802 5804 5806 5808 5810 5812 5815 5818 5823 5827 5830 5833 5836 5838 5840 5842 5845 5847 5848 5850 5853 5855 5858 5861 5863 5865 5867 5869 5872 5874
5648 5655 5661 5668 5675 5680 5684 5690 5694 5697 5703 5708 5713 5718 5723 5728 5733 5737 5742 5747 5753 5757 5762 5766 5769 5773 5776 5779 5782 5785 5789 5792 5795 5799 5802 5805 5806 5808 5810 5813 5817 5821 5824 5827 5830 5832 5834 5837 5840 5842 5844 5846 5848 5851 5854 5857 5859 5862 5864 5866 5868 5870 5872
5645 5652 5659 5666 5673 5677 5682 5687 5691 5695 5700 5705 5711 5715 5719 5724 5730 5734 5738 5744 5749 5754 5758 5762 5766 5770 5773 5776 5779 5782 5786 5790 5793 5797 5800 5803 5805 5807 5809 5812 5815 5819 5821 5824 5827 5829 5832 5835 5838 5840 5842 5844 5847 5850 5853 5855 5858 5861 5863 5865 5867 5869 5871
5644 5651 5657 5664 5670 5676 5680 5684 5688 5692 5696 5702 5707 5711 5715 5721 5726 5730 5735 5740 5745 5750 5754 5759 5763 5766 5769 5772 5775 5779 5784 5788 5791 5795 5798 5801 5804 5806 5808 5811 5814 5817 5819 5822 5824 5827 5830 5833 5836 5838 5840 5843 5846 5849 5852 5855 5857 5860 5862 5864 5866 5868 5871
5643 5650 5656 5663 5668 5673 5677 5681 5686 5690 5691 5696 5702 5707 5712 5718 5723 5727 5731 5737 5742 5746 5751 5755 5759 5762 5765 5768 5772 5777 5781 5785 5789 5792 5795 5799 5802 5805 5807 5810 5813 5816 5818 5820 5823 5825 5828 5831 5834 5836 5839 5842 5845 5848 5851 5854 5857 5859 5861 5863 5865 5868 5870
5642 5648 5655 5660 5664 5669 5674 5678 5683 5685 5685 5690 5699 5705 5710 5716 5721 5724 5728 5733 5739 5743 5747 5751 5755 5757 5760 5765 5770 5774 5778 5782 5786 5789 5793 5796 5799 5803 5806 5808 5811 5814 5817 5819 5821 5824 5826 5829 5832 5835 5838 5841 5843 5846 5849 5852 5854 5857 5859 5861 5863 5866 5868
5640 5645 5651 5655 5660 5667 5671 5674 5678 5680 5681 5686 5695 5701 5706 5711 5716 5720 5725 5730 5735 5738 5742 5746 5750 5753 5756 5761 5767 5771 5775 5778 5782 5786 5790 5793 5797 5799 5802 5806 5809 5812 5815 5817 5820 5822 5825 5827 5830 5833 5836 5839 5841 5843 5846 5849 5851 5854 5856 5858 5861 5863 5865
5637 5642 5647 5652 5657 5663 5667 5669 5673 5677 5680 5684 5691 5696 5701 5706 5711 5715 5721 5726 5731 5734 5737 5742 5745 5749 5753 5757 5762 5767 5770 5774 5778 5782 5786 5790 5793 5796 5799 5803 5806 5809 5812 5814 5817 5820 5822 5825 5828 5831 5833 5836 5838 5841 5843 5846 5848 5851 5853 5855 5858 5860 5863
5635 5640 5644 5648 5653 5659 5663 5666 5670 5673 5676 5681 5687 5692 5697 5702 5707 5711 5716 5721 5725 5730 5734 5738 5741 5745 5748 5752 5756 5761 5765 5769 5773 5778 5782 5786 5790 5793 5796 5800 5803 5806 5809 5812 5815 5817 5820 5823 5826 5828 5830 5833 5836 5839 5840 5842 5844 5847 5850 5852 5855 5857 5860
5633 5637 5641 5644 5649 5656 5661 5664 5666 5670 5672 5675 5681 5688 5692 5697 5702 5707 5711 5716 5720 5725 5730 5734 5736 5740 5744 5747 5751 5756 5761 5765 5769 5773 5778 5782 5786 5789 5793 5797 5800 5803 5806 5809 5812 5815 5818 5820 5823 5825 5826 5829 5833 5836 5837 5838 5840 5842 5846 5848 5851 5853 5856
5630 5634 5638 5642 5647 5652 5658 5661 5663 5666 5668 5671 5675 5682 5687 5692 5696 5701 5706 5711 5715 5719 5725 5729 5732 5736 5739 5743 5748 5752 5756 5760 5764 5769 5773 5777 5781 5785 5789 5792 5796 5799 5802 5805 5809 5812 5814 5817 5820 5822 5824 5827 5829 5832 5834 5835 5837 5839 5842 5844 5847 5849 5851
5629 5632 5636 5639 5644 5649 5655 5658 5660 5662 5666 5669 5672 5677 5683 5687 5691 5695 5700 5705 5709 5714 5720 5725 5729 5732 5735 5739 5743 5747 5751 5755 5760 5764 5768 5773 5777 5781 5784 5788 5792 5795 5798 5802 5805 5808 5811 5813 5816 5818 5821 5823 5825 5827 5830 5832 5834 5836 5839 5841 5843 5845 5847
5628 5631 5634 5637 5642 5646 5651 5654 5656 5660 5664 5668 5671 5675 5679 5683 5687 5691 5695 5701 5705 5710 5715 5720 5725 5728 5731 5735 5739 5743 5745 5749 5754 5759 5763 5768 5773 5777 5780 5784 5787 5791 5794 5798 5801 5804 5807 5810 5813 5815 5817 5819 5821 5823 5826 5828 5830 5833 5835 5837 5839 5841 5843
5628 5630 5632 5636 5639 5643 5647 5651 5654 5657 5661 5666 5670 5674 5678 5681 5685 5688 5693 5698 5703 5706 5711 5716 5721 5725 5728 5732 5736 5739 5741 5744 5748 5754 5759 5764 5769 5772 5776 5780 5783 5787 5790 5793 5797 5800 5804 5807 5809 5811 5814 5816 5818 5820 5822 5825 5827 5829 5831 5833 5836 5838 5840
5627 5630 5632 5635 5637 5640 5644 5648 5651 5653 5658 5663 5667 5672 5677 5680 5683 5686 5691 5697 5702 5705 5709 5714 5718 5721 5725 5730 5733 5737 5741 5743 5746 5751 5756 5760 5765 5768 5772 5775 5779 5783 5786 5790 5793 5796 5800 5803 5806 5808 5811 5813 5814 5817 5819 5821 5823 5825 5828 5830 5832 5834 5836
5628 5630 5632 5634 5636 5638 5641 5644 5647 5650 5655 5660 5665 5669 5673 5677 5681 5685 5690 5696 5701 5704 5707 5711 5715 5718 5722 5727 5730 5735 5739 5742 5744 5748 5753 5757 5761 5765 5768 5772 5775 5779 5783 5786 5790 5793 5796 5799 5802 5804 5807 5809 5811 5813 5815 5817 5819 5822 5824 5826 5828 5830 5833